Weather in Montbeliard

France     47°30′24″N   6°48′36″E
temp.,
°C
wind,
m/s
gust,
m/s
humid.,
%
clouds,
%
prec.,
mm/h
press.,
hPa
HPBL,
m
22 april, thu
thu2223:00+6ssw11909 0.0 101811
02:00+5s119178 0.0 101910
05:00+4ese11915 0.0 101910
08:00+7e27905 0.0 1020240
11:00+11e577829 0.0 1021664
14:00+14e56655 0.2 1020916
17:00+14e565722 0.1 10201026
20:00+9e6126024 0.1 1022432
23 april, fri
fri2323:00+6e512532 0.0 1024359
02:00+3e311725 0.0 1025238
05:00+1e311815 0.0 1025230
08:00+4e411725 0.0 1026334
11:00+10ene610530 0.0 1025688
14:00+13ene68490 0.0 1024975
17:00+15ene58500 0.0 10221092
20:00+10e410703 0.0 1023315
24 april, sat
sat2423:00+5ese36815 0.0 1025111
02:00+3e39895 0.0 1024165
05:00+2e38905 0.0 1024146
08:00+5e38790 0.0 1024195
11:00+12ene55615 0.0 1022506
14:00+16ene33555 0.0 1021702
17:00+17ene32535 0.0 1020733
20:00+12ene357850 0.0 102075
25 april, sun
sun2523:00+9ese4107347 0.0 1021237
02:00+7e31074100 0.0 1021226
05:00+5e3986100 0.0 1021205
08:00+6e4108399 0.0 1021287
11:00+12ene686612 0.0 1020563
14:00+16ene67595 0.0 1018765
17:00+16ene576080 0.0 1017733
20:00+13e51172100 0.0 1016393
26 april, mon
mon2623:00+9e41170100 0.0 1017273
02:00+7e41179100 0.0 1016263
05:00+5e4989100 0.0 1015207
08:00+6ene4880100 0.1 1015239
11:00+11ene5664100 0.0 1014511
14:00+15ene5559100 0.1 1011756
17:00+14ene4768100 0.1 1008418
20:00+12ene41075100 0.1 1007350